PBO Station Position Time Series. Reference Frame : NAM14
Format Version,1.1.0
4-character ID,ILSA
Station name,Springfield
Begin Date, 2005-04-20
End Date, 2019-10-07
Release Date, 2019-10-08
Reference position, 39.7786351822 North Latitude, -89.6103009042 East Longitude, 152.89392 meters elevation,
Date, North (mm), East (mm), Vertical (mm), North Std. Deviation (mm), East Std. Deviation (mm),              Vertical Std. Deviation (mm), Quality,
2005-04-20,0.00, 0.00, 0.00, 2.17, 1.78, 7.89, repro,
2005-04-21,-0.43, 2.97, -4.33, 2.21, 1.84, 8.18, repro,
2005-04-22,-0.18, 1.48, -1.51, 2.09, 1.67, 7.64, repro,
2005-04-23,0.94, 3.11, -2.57, 2.07, 1.66, 7.59, repro,
2005-04-24,1.42, 3.72, -1.19, 2.16, 1.77, 7.86, repro,
2005-04-25,-0.15, 3.25, 3.59, 2.07, 1.65, 7.54, repro,
2005-04-26,-0.18, 3.80, 5.42, 2.14, 1.78, 7.84, repro,
2005-04-27,-0.02, 4.15, 0.59, 2.08, 1.66, 7.56, repro,
2005-04-28,-0.07, 5.39, 2.17, 2.20, 1.78, 8.06, repro,
2005-04-29,0.00, 4.23, -0.57, 2.13, 1.70, 7.76, repro,
2005-04-30,-1.22, 4.71, 1.01, 2.36, 1.82, 8.52, repro,
2005-05-01,-0.54, 4.02, -4.22, 2.15, 1.77, 7.81, repro,
2005-05-02,0.69, 4.23, -2.95, 2.05, 1.65, 7.48, repro,
2005-05-03,-0.41, 3.29, 0.24, 2.12, 1.71, 7.69, repro,
2005-05-04,-0.82, 3.04, -3.29, 2.07, 1.65, 7.55, repro,
2005-05-05,-1.61, 9.14, -9.60, 6.46, 12.53, 15.77, repro,
2005-05-06,-3.17, 4.74, -6.90, 6.48, 12.56, 15.69, repro,
2005-05-07,-2.50, 10.22, -6.65, 6.48, 12.57, 15.67, repro,
2005-05-08,-0.40, 7.55, -2.06, 6.52, 12.55, 15.91, repro,
2005-05-09,1.67, -0.50, -11.07, 6.65, 12.72, 16.35, repro,
2005-05-10,3.84, 10.26, 5.62, 6.76, 12.57, 16.44, repro,
2005-05-11,-1.23, 4.90, -0.68, 7.27, 14.06, 17.59, repro,
2005-05-12,1.98, 16.28, -5.50, 6.93, 13.19, 16.70, repro,
2005-05-13,0.53, -10.76, 1.62, 6.94, 12.83, 17.35, repro,
2005-05-14,-2.77, 4.48, 8.50, 6.72, 12.57, 16.83, repro,
2005-05-15,-1.47, -0.54, 5.71, 6.87, 12.83, 16.97, repro,
2005-05-16,-1.34, 11.77, 5.42, 6.64, 12.50, 16.50, repro,
2005-05-17,-1.71, 1.31, 12.14, 6.84, 12.87, 16.91, repro,
2005-05-18,-0.21, 8.63, 8.40, 6.80, 12.95, 16.66, repro,
2005-05-19,-1.39, 12.33, 9.43, 6.66, 12.86, 16.67, repro,
2005-05-20,-2.09, 16.16, -3.40, 7.61, 14.44, 18.71, repro,
2005-05-21,-5.14, 11.73, 2.31, 6.64, 12.70, 16.49, repro,
2005-05-22,-4.86, 11.65, -5.39, 6.70, 12.76, 16.62, repro,
2005-05-23,-4.33, 0.03, 10.43, 6.68, 12.64, 16.62, repro,
2005-05-24,-2.90, -6.45, 6.73, 6.66, 12.55, 16.50, repro,
2005-05-25,0.86, 2.25, 2.88, 6.66, 12.47, 16.50, repro,
2005-05-26,-0.15, 2.41, 6.26, 6.73, 12.50, 16.62, repro,
2005-05-27,-1.10, 10.39, 15.56, 6.72, 12.37, 16.63, repro,
2005-05-28,1.31, 13.36, 1.34, 6.70, 12.41, 16.77, repro,
2005-05-29,2.68, 5.99, 7.92, 6.73, 12.43, 16.82, repro,
2005-05-30,0.36, 6.45, 3.17, 6.71, 12.44, 16.62, repro,
2005-05-31,-0.90, 6.88, 12.06, 6.68, 12.45, 16.69, repro,
2005-06-01,-3.01, 9.99, 17.22, 6.52, 12.34, 16.07, repro,
2005-06-02,-5.26, 8.26, 16.94, 6.49, 12.35, 15.95, repro,
2005-06-03,-2.48, 7.04, 16.40, 6.46, 12.44, 15.89, repro,
2005-06-04,-0.48, 8.58, 8.99, 6.53, 12.62, 16.00, repro,
2005-06-05,-0.72, 17.15, 0.74, 6.81, 13.25, 16.67, repro,
2005-06-06,-2.45, 9.10, 12.38, 6.53, 12.46, 16.12, repro,
2005-06-07,-2.31, 7.62, 16.79, 6.54, 12.43, 16.13, repro,
2005-06-08,-1.37, -6.48, 26.33, 6.86, 13.43, 16.79, repro,
2005-06-09,-1.96, 0.21, 15.89, 6.68, 12.46, 16.72, repro,
2005-06-10,-0.65, -6.54, 10.26, 6.76, 12.37, 16.62, repro,
2005-06-11,-2.41, 7.50, 23.18, 6.76, 12.41, 16.63, repro,
2005-06-12,-5.35, 9.66, 18.70, 6.76, 12.50, 16.87, repro,
2005-06-13,-5.21, 4.79, 12.54, 6.93, 12.62, 17.52, repro,
2005-06-14,-4.64, 6.86, 15.27, 2.27, 1.78, 8.30, repro,
2005-06-15,-2.88, 6.64, 6.53, 2.12, 1.67, 7.65, repro,
2005-06-16,-1.54, 4.79, 5.02, 2.12, 1.70, 7.75, repro,
2005-06-17,-2.42, 4.20, 6.83, 2.17, 1.70, 7.78, repro,
2005-06-18,-1.27, 4.63, 8.29, 2.11, 1.65, 7.53, repro,
2005-06-19,-3.06, 3.26, 0.52, 2.06, 1.63, 7.46, repro,
2005-06-20,-0.35, 2.78, -0.41, 2.26, 1.88, 8.44, repro,
2005-06-21,1.37, 5.82, 19.15, 6.60, 12.62, 16.53, repro,
2005-06-22,1.88, 2.13, -1.76, 6.76, 12.73, 16.65, repro,
2005-06-23,1.80, 6.28, -6.17, 6.56, 12.28, 16.18, repro,
2005-06-24,-4.94, 1.22, 11.57, 6.79, 12.71, 16.37, repro,
2005-06-25,-4.57, 9.03, 7.41, 7.31, 15.14, 18.03, repro,
2005-06-26,-0.85, 4.14, -6.49, 6.58, 12.27, 16.20, repro,
2005-06-27,-2.34, 2.20, 13.74, 6.59, 12.26, 16.47, repro,
2005-06-28,-3.45, 3.00, 16.62, 6.56, 12.24, 16.28, repro,
2005-06-29,-1.56, 7.55, -12.83, 6.49, 12.22, 16.03, repro,
2005-06-30,-1.56, 15.36, 13.13, 6.51, 12.42, 16.16, repro,
2005-07-01,-7.46, -3.11, 14.49, 6.79, 12.80, 16.27, repro,
2005-07-02,0.26, 7.10, 9.69, 6.48, 12.36, 15.89, repro,
2005-08-15,-5.00, 14.39, 3.31, 9.78, 17.73, 23.92, repro,
2005-08-16,-8.19, 16.80, 6.07, 6.73, 12.64, 16.44, repro,
2005-08-17,-7.84, 19.59, 16.17, 6.55, 12.37, 16.17, repro,
2005-08-18,-5.95, 2.17, 18.63, 6.60, 12.33, 16.35, repro,
2005-08-19,-7.60, 5.05, 20.95, 7.79, 16.53, 19.28, repro,
2005-08-20,-2.68, 0.08, 23.27, 6.86, 12.78, 16.43, repro,
2005-08-21,-4.18, 4.38, 11.83, 7.62, 12.80, 18.11, repro,
2005-08-22,-8.85, 1.28, 22.41, 6.73, 12.58, 16.56, repro,
2005-08-23,-1.99, 7.61, 10.72, 6.53, 12.14, 16.03, repro,
2005-08-24,-4.58, 0.22, 10.47, 6.53, 12.19, 16.13, repro,
2005-08-25,-4.02, 1.87, 15.43, 6.54, 12.20, 16.08, repro,
2005-08-26,-8.88, 12.63, 23.82, 6.72, 12.65, 16.23, repro,
2005-08-27,-7.98, 8.14, 23.52, 6.51, 12.28, 16.10, repro,
2005-08-28,-5.57, 8.36, 7.13, 6.48, 12.25, 15.98, repro,
2005-08-29,-6.04, 16.83, 3.03, 6.60, 12.76, 15.97, repro,
2005-08-30,-6.24, 14.55, 17.94, 6.49, 12.30, 15.94, repro,
2005-08-31,-5.58, 7.87, 15.22, 6.54, 12.29, 16.05, repro,
2005-09-01,-2.85, -4.90, 8.81, 6.58, 12.35, 16.30, repro,
2005-09-02,-3.81, 6.28, 9.77, 6.61, 12.30, 16.31, repro,
2005-09-03,-3.63, 4.08, 9.09, 6.62, 12.21, 16.21, repro,
2005-09-04,-4.26, 8.22, 6.17, 6.59, 12.14, 16.05, repro,
2005-09-05,-3.05, -1.73, 7.84, 6.57, 12.11, 15.97, repro,
2005-09-06,-1.16, -0.79, -2.39, 6.58, 12.06, 16.06, repro,
2005-09-07,-6.71, -0.36, -2.06, 6.72, 12.31, 16.42, repro,
2005-09-08,-0.66, 11.33, 13.26, 6.69, 12.31, 16.28, repro,
2005-09-09,-2.78, 3.22, 8.29, 6.68, 12.49, 16.32, repro,
2005-09-10,-2.58, 4.00, -8.94, 6.65, 12.54, 16.39, repro,
2005-09-11,-3.51, 3.75, 1.64, 6.63, 12.53, 16.21, repro,
2005-09-12,-4.03, 1.89, 5.82, 6.58, 12.54, 15.98, repro,
2005-09-13,-3.03, 4.44, 13.17, 7.44, 13.95, 17.96, repro,
2005-09-14,-2.98, 14.07, -12.39, 7.34, 14.32, 17.80, repro,
2005-09-15,-4.90, 1.03, 2.78, 6.94, 13.20, 17.11, repro,
2005-09-16,-4.35, 11.79, 7.70, 6.87, 12.87, 16.84, repro,
2005-09-17,-7.62, 12.90, -5.03, 6.57, 12.30, 16.06, repro,
2005-09-18,-2.34, 6.32, 5.67, 6.59, 12.26, 16.04, repro,
2005-09-19,-0.19, 3.53, -5.12, 7.22, 13.74, 18.26, repro,
2005-09-20,-8.40, 0.73, 6.54, 6.63, 12.31, 16.17, repro,
2005-09-21,-5.02, 9.73, 4.65, 6.60, 12.66, 16.19, repro,
2005-09-22,-4.53, 19.76, 21.36, 6.58, 12.17, 16.02, repro,
2005-09-23,3.25, 8.84, 7.62, 6.71, 12.76, 16.33, repro,
2005-09-24,-1.64, 12.08, 14.21, 6.64, 12.47, 16.27, repro,
2005-09-25,-4.71, 17.95, 8.00, 6.59, 12.56, 16.19, repro,
2005-09-26,-7.20, 11.07, 23.68, 6.59, 12.53, 16.06, repro,
2005-09-27,-9.72, 16.68, 3.03, 6.63, 12.52, 16.21, repro,
2005-09-28,-4.19, 12.39, -1.74, 6.70, 12.84, 16.50, repro,
2005-09-29,-7.87, 14.80, 7.32, 6.68, 12.79, 16.45, repro,
2005-09-30,-5.13, 10.98, 8.08, 6.51, 12.35, 16.07, repro,
2005-10-01,-8.24, 11.35, 11.34, 6.55, 12.37, 16.22, repro,
2005-10-02,-3.34, 6.08, -5.12, 6.78, 12.56, 16.80, repro,
2005-10-03,-4.94, 14.99, 6.35, 6.75, 12.57, 16.64, repro,
2005-10-04,-9.26, 8.94, 7.95, 6.96, 12.95, 17.11, repro,
2005-10-05,-6.59, 5.07, 9.45, 6.60, 12.24, 16.08, repro,
2005-10-06,-4.54, 12.10, 8.96, 6.57, 12.29, 16.15, repro,
2005-10-07,0.24, 11.75, 3.70, 6.53, 12.25, 15.96, repro,
2005-10-08,1.07, 14.42, 7.50, 8.34, 14.19, 20.15, repro,
2005-10-18,-4.75, 1.57, 8.34, 10.81, 28.45, 27.66, repro,
2005-10-19,-2.24, 3.15, 5.42, 7.08, 12.98, 17.19, repro,
2005-10-20,-3.13, 6.71, 2.67, 2.32, 1.81, 8.15, repro,
2005-10-21,-4.18, 6.54, 13.05, 2.19, 1.70, 7.72, repro,
2005-10-22,-3.75, 7.14, 9.92, 2.10, 1.64, 7.49, repro,
2005-10-23,-3.13, 6.70, 7.91, 2.11, 1.68, 7.59, repro,
2005-10-24,-2.54, 7.14, 2.69, 2.18, 1.73, 7.78, repro,
2005-10-25,-4.31, 6.58, 9.47, 2.16, 1.70, 7.73, repro,
2005-10-26,-3.79, 8.09, 10.29, 2.17, 1.75, 7.83, repro,
2005-10-27,-4.85, 6.96, 4.50, 2.13, 1.68, 7.68, repro,
2005-10-28,-3.43, 7.61, 0.45, 2.08, 1.64, 7.52, repro,
2005-10-29,-3.62, 8.16, 3.11, 2.13, 1.68, 7.69, repro,
2005-10-30,-4.52, 6.87, -1.59, 2.12, 1.68, 7.64, repro,
2005-10-31,-4.43, 5.87, -5.11, 2.17, 1.75, 8.00, repro,
2005-11-01,-3.56, 17.28, -2.61, 7.43, 13.63, 17.75, repro,
2005-11-02,-3.76, 7.25, 5.58, 2.25, 1.87, 8.23, repro,
2005-11-03,-3.46, 6.43, 5.16, 2.18, 1.77, 8.01, repro,
2005-11-04,-3.74, 6.74, 10.16, 2.17, 1.79, 7.99, repro,
2005-11-05,-4.41, 7.05, 6.00, 2.22, 1.81, 8.05, repro,
2005-11-06,-6.71, 9.36, 9.89, 2.30, 1.89, 8.37, repro,
2005-11-07,-4.33, 9.33, 9.01, 2.20, 1.79, 7.98, repro,
2005-11-08,-6.23, 13.90, 20.12, 7.44, 13.63, 17.49, repro,
2005-11-09,-4.91, 15.72, 13.09, 6.87, 12.78, 16.15, repro,
2005-11-10,-2.93, 9.01, 10.89, 6.97, 12.86, 16.46, repro,
2005-11-11,-3.35, 10.59, 8.23, 3.09, 2.42, 10.91, repro,
2005-11-12,-3.90, 8.57, 12.21, 2.22, 1.79, 8.21, repro,
2005-11-13,-4.26, 6.96, 3.87, 2.14, 1.75, 7.99, repro,
2005-11-14,-2.48, 12.90, -3.92, 6.94, 12.69, 16.56, repro,
2005-11-15,-2.76, 17.23, -13.77, 6.87, 12.52, 16.71, repro,
2005-11-16,-5.54, 8.08, 0.72, 2.11, 1.68, 7.54, repro,
2005-11-17,-2.98, 9.96, -8.79, 6.66, 12.15, 16.19, repro,
2005-11-18,-3.32, 5.68, -9.36, 6.67, 12.21, 16.11, repro,
2005-11-19,-2.91, 8.62, 8.22, 6.65, 12.24, 16.22, repro,
2005-11-20,-5.48, 6.35, 1.83, 6.77, 12.30, 16.63, repro,
2005-11-21,-6.29, 7.35, 5.29, 6.78, 12.28, 16.53, repro,
2005-11-22,-3.13, 8.74, 12.40, 6.70, 12.39, 16.28, repro,
2005-11-23,-5.25, 7.07, 17.52, 6.69, 12.58, 16.49, repro,
2005-11-24,-0.81, 7.10, 18.04, 6.54, 12.34, 15.82, repro,
2005-11-25,-1.69, 10.29, 1.32, 6.61, 12.40, 16.07, repro,
2005-11-26,-0.04, 11.65, 3.63, 6.67, 12.44, 16.19, repro,
2005-11-27,0.42, 8.44, 6.65, 6.62, 12.35, 16.22, repro,
2005-11-28,-5.44, 13.77, 8.78, 6.64, 12.37, 16.27, repro,
2005-11-29,-2.72, 7.49, 10.76, 6.60, 12.21, 16.23, repro,
2005-11-30,-0.00, 11.14, -4.51, 6.63, 12.12, 16.35, repro,
2005-12-01,-0.83, 11.39, -6.91, 6.93, 12.48, 16.77, repro,
2005-12-02,0.99, 14.67, -8.61, 6.72, 12.19, 16.39, repro,
2005-12-03,-3.00, 8.50, 6.28, 6.74, 12.32, 16.50, repro,
2005-12-04,-2.55, 6.16, 9.13, 2.19, 1.67, 7.92, repro,
2005-12-05,-2.99, 8.83, -0.70, 6.54, 12.11, 16.00, repro,
2005-12-06,1.03, 12.76, 1.57, 6.64, 12.40, 16.60, repro,
2005-12-07,1.17, 10.84, -10.54, 6.61, 12.25, 16.36, repro,
2005-12-08,-1.00, 6.92, -12.82, 6.58, 12.31, 16.30, repro,
2005-12-09,0.53, 4.21, 1.11, 6.62, 12.29, 16.10, repro,
2005-12-10,-2.20, 2.32, -0.24, 6.48, 12.27, 15.79, repro,
2005-12-11,-0.01, 13.57, 5.31, 6.52, 12.23, 15.86, repro,
2005-12-12,-0.97, 10.67, -3.73, 6.71, 12.47, 16.17, repro,
2005-12-13,0.64, 9.41, -3.35, 6.56, 12.18, 16.01, repro,
2005-12-14,-0.40, 7.26, -1.76, 7.00, 12.48, 17.22, repro,
2005-12-15,-1.34, 14.53, -6.38, 7.27, 13.26, 17.51, repro,
2005-12-16,-2.26, 10.48, -4.42, 6.59, 12.11, 16.08, repro,
2005-12-17,-1.69, 8.61, -2.36, 6.69, 12.05, 16.38, repro,
2005-12-18,1.19, 10.42, -12.85, 6.77, 12.23, 16.10, repro,
2005-12-19,-3.93, 6.53, -8.85, 6.76, 12.23, 16.12, repro,
2005-12-20,-1.22, 8.45, -2.76, 6.95, 12.35, 16.68, repro,
2005-12-21,-1.28, 9.96, 0.37, 6.74, 12.26, 16.23, repro,
2005-12-22,0.63, 9.55, 4.24, 6.96, 12.54, 16.51, repro,
2005-12-23,-5.88, 4.65, 18.75, 6.86, 12.68, 16.56, repro,
2005-12-24,-2.42, 11.96, 9.71, 6.73, 12.36, 16.25, repro,
2005-12-25,-1.93, 8.72, 2.40, 6.65, 12.18, 15.94, repro,
2005-12-26,-1.22, 5.27, 4.13, 6.78, 12.33, 16.41, repro,
2005-12-27,-3.39, 8.20, 15.86, 6.94, 12.59, 16.59, repro,
2005-12-28,-2.58, 6.47, 1.86, 6.72, 12.17, 16.30, repro,
2005-12-29,-0.90, 9.78, -4.64, 6.92, 12.50, 16.45, repro,
2005-12-30,-2.00, 16.81, 1.26, 6.95, 12.48, 16.45, repro,
2005-12-31,-2.46, 8.16, 1.68, 6.67, 12.05, 16.20, repro,
2006-01-01,-3.47, 7.53, 10.02, 2.11, 1.65, 7.59, repro,
2006-01-02,-2.36, 6.12, 10.75, 2.14, 1.70, 7.81, repro,
2006-01-03,-3.82, 7.22, 3.74, 2.23, 1.72, 8.08, repro,
2006-01-04,-4.43, 11.88, 1.86, 6.89, 12.58, 16.57, repro,
2006-01-05,-2.06, 11.37, 6.48, 6.61, 12.16, 16.19, repro,
2006-01-06,-1.46, 5.55, 5.79, 6.80, 12.30, 16.56, repro,
2006-01-07,-5.52, 8.16, 3.29, 6.68, 12.28, 16.28, repro,
2006-01-08,-0.91, 6.95, 12.76, 6.88, 12.49, 16.60, repro,
2006-01-09,-3.22, 11.38, 0.85, 7.05, 12.61, 17.28, repro,
2006-01-10,-2.79, 7.65, -2.55, 7.05, 12.55, 17.23, repro,
2006-01-11,-0.30, 13.07, -10.20, 6.90, 12.38, 16.77, repro,
2006-01-12,-3.88, 7.32, 14.30, 4.08, 3.25, 12.33, repro,
2006-01-13,-2.73, 6.00, 5.72, 2.17, 1.66, 7.76, repro,
2006-01-14,-2.44, 8.53, 2.24, 2.12, 1.69, 7.73, repro,
2006-01-15,-3.54, 9.21, 7.63, 2.12, 1.69, 7.76, repro,
2006-01-16,-2.59, 6.92, 15.08, 2.16, 1.70, 7.86, repro,
2006-01-17,-3.53, 6.88, 10.42, 2.26, 1.67, 8.04, repro,
2006-01-18,-1.64, 7.37, 9.82, 2.13, 1.68, 7.74, repro,
2006-01-19,-2.94, 6.84, 9.04, 2.11, 1.69, 7.62, repro,
2006-01-20,-1.92, 7.06, 3.08, 2.10, 1.69, 7.63, repro,
2006-01-21,-3.91, 5.65, 4.26, 2.09, 1.64, 7.57, repro,
2006-01-22,-1.80, 7.90, -1.97, 2.10, 1.64, 7.57, repro,
2006-01-23,-3.09, 7.63, -0.10, 2.07, 1.62, 7.39, repro,
2006-01-24,-2.19, 8.10, 3.26, 2.13, 1.66, 7.57, repro,
2006-01-25,-2.69, 6.77, -0.27, 2.05, 1.61, 7.40, repro,
2006-01-26,-1.45, 7.37, -6.01, 2.01, 1.60, 7.29, repro,
2006-01-27,-3.14, 7.23, 1.65, 2.04, 1.60, 7.36, repro,
2006-01-28,-3.06, 7.05, 1.08, 2.03, 1.60, 7.33, repro,
2006-01-29,-3.96, 6.58, 13.05, 2.04, 1.60, 7.29, repro,
2006-01-30,-2.42, 6.27, 1.50, 2.04, 1.59, 7.26, repro,
2006-01-31,-2.20, 7.63, 6.74, 2.03, 1.60, 7.25, repro,
2006-02-01,-2.60, 6.46, 9.43, 2.04, 1.61, 7.30, repro,
2006-02-02,-2.38, 7.09, 8.00, 2.04, 1.61, 7.32, repro,
2006-02-03,-3.17, 6.76, 13.54, 2.04, 1.60, 7.27, repro,
2006-02-04,-1.73, 6.65, 9.42, 2.05, 1.66, 7.42, repro,
2006-02-05,-1.06, 6.08, 5.21, 2.02, 1.60, 7.25, repro,
2006-02-06,-0.58, 6.25, -2.08, 2.05, 1.66, 7.50, repro,
2006-02-07,-1.38, 5.97, -1.73, 2.07, 1.72, 7.74, repro,
2006-02-08,-3.04, 6.31, -6.74, 2.05, 1.65, 7.51, repro,
2006-02-09,-0.83, 7.02, -7.76, 2.09, 1.72, 7.79, repro,
2006-02-10,-2.19, 6.17, 3.49, 2.11, 1.71, 7.66, repro,
2006-02-11,-1.46, 3.67, -10.27, 2.05, 1.68, 7.49, repro,
2006-02-12,-2.35, 4.82, 3.87, 2.06, 1.65, 7.39, repro,
2006-02-13,-0.83, 4.24, -1.12, 2.05, 1.66, 7.50, repro,
2006-02-14,-1.95, 5.11, 1.53, 2.07, 1.68, 7.46, repro,
2006-02-15,-1.06, 4.26, 10.66, 2.07, 1.68, 7.56, repro,
2006-02-16,-0.48, 4.73, -1.79, 2.04, 1.66, 7.37, repro,
2006-02-17,-0.78, 3.60, -10.94, 2.08, 1.74, 7.76, repro,
2006-02-18,0.36, 5.30, -10.53, 2.05, 1.68, 7.53, repro,
2006-02-19,-0.03, 5.39, -10.73, 2.05, 1.67, 7.54, repro,
2006-02-20,-0.37, 5.65, -2.50, 2.06, 1.67, 7.53, repro,
2006-02-21,-0.82, 4.12, 4.76, 2.09, 1.73, 7.71, repro,
2006-02-22,-2.20, 4.90, 4.84, 2.06, 1.73, 7.71, repro,
2006-02-23,-1.13, 3.93, 1.91, 2.08, 1.74, 7.75, repro,
2006-02-24,-0.10, 2.93, -2.44, 2.01, 1.64, 7.30, repro,
2006-02-25,0.72, 2.91, -14.68, 2.06, 1.73, 7.69, repro,
2006-02-26,1.14, 4.02, -11.35, 2.04, 1.70, 7.57, repro,
2006-02-27,0.42, 2.69, -6.45, 2.00, 1.64, 7.25, repro,
2006-02-28,1.37, 3.15, -1.20, 2.06, 1.73, 7.65, repro,
2006-03-01,-0.29, 3.25, 2.52, 2.07, 1.74, 7.74, repro,
2006-03-02,-0.10, 1.88, -2.67, 2.04, 1.69, 7.50, repro,
2006-03-03,0.56, 3.60, -6.82, 2.06, 1.74, 7.68, repro,
2006-03-04,1.35, 3.63, -11.21, 2.02, 1.68, 7.46, repro,
2006-03-05,0.07, 3.25, -13.71, 2.02, 1.64, 7.34, repro,
2006-03-06,-0.42, 3.43, -6.88, 2.02, 1.63, 7.32, repro,
2006-03-07,0.61, 4.04, -6.60, 2.01, 1.62, 7.29, repro,
2006-03-08,-2.24, 5.59, -0.76, 2.02, 1.63, 7.33, repro,
2006-03-09,-1.72, 5.49, 9.19, 2.01, 1.63, 7.32, repro,
2006-03-10,-2.41, 6.14, 4.86, 1.99, 1.62, 7.27, repro,
2006-03-11,-2.96, 4.95, 1.80, 2.04, 1.65, 7.44, repro,
2006-03-12,-3.55, 5.97, -0.41, 2.10, 1.74, 7.80, repro,
2006-03-13,0.11, 7.80, -21.25, 5.50, 4.45, 19.48, repro,
2006-03-14,-1.33, 8.25, -0.54, 2.09, 1.71, 7.68, repro,
2006-03-15,-2.43, 7.27, -4.36, 2.03, 1.66, 7.49, repro,
2006-03-16,-3.16, 6.41, -6.74, 2.10, 1.71, 7.87, repro,
2006-03-17,-1.67, 5.16, -7.72, 2.13, 1.70, 7.88, repro,
2006-03-18,-0.21, 4.52, -11.59, 2.06, 1.68, 7.64, repro,
2006-03-19,-2.28, 5.23, -7.27, 2.06, 1.66, 7.58, repro,
2006-03-20,0.50, 6.36, -6.15, 2.06, 1.66, 7.58, repro,
2006-03-21,0.02, 4.33, -2.84, 2.03, 1.67, 7.53, repro,
2006-03-22,-0.07, 4.34, -15.86, 2.04, 1.68, 7.56, repro,
2006-03-23,0.14, 4.68, -10.63, 2.14, 1.74, 7.85, repro,
2006-03-24,-1.73, 3.70, -11.10, 2.10, 1.69, 7.69, repro,
2006-03-25,-1.56, 5.56, -7.35, 2.11, 1.70, 7.77, repro,
2006-03-26,-0.78, 5.79, -6.66, 2.15, 1.76, 8.01, repro,
2006-03-27,-1.61, 5.34, -6.98, 2.08, 1.70, 7.67, repro,
2006-03-28,-1.23, 5.32, -1.51, 2.04, 1.64, 7.42, repro,
2006-03-29,-1.83, 6.12, -5.98, 2.05, 1.66, 7.43, repro,
2006-03-30,-4.73, 5.95, 0.72, 2.03, 1.62, 7.37, repro,
2006-03-31,-3.33, 7.61, 0.45, 2.11, 1.68, 7.57, repro,
2006-04-01,-0.18, 7.44, -1.88, 2.05, 1.67, 7.45, repro,
2006-04-02,-1.74, 7.96, 5.34, 2.13, 1.82, 7.92, repro,
2006-04-03,-3.77, 5.49, 5.77, 2.08, 1.68, 7.51, repro,
2006-04-04,-2.13, 6.58, -6.51, 2.04, 1.63, 7.34, repro,
2006-04-05,-2.48, 6.18, -1.12, 2.09, 1.68, 7.54, repro,
2006-04-06,-5.15, 5.58, 0.26, 2.26, 1.80, 8.20, repro,
2006-04-07,-2.07, 8.22, 5.60, 2.13, 1.75, 7.84, repro,
2006-04-08,-0.95, 8.59, -2.02, 2.10, 1.69, 7.57, repro,
2006-04-09,-3.53, 8.43, 1.30, 2.03, 1.62, 7.26, repro,
2006-04-10,-1.08, 8.22, 1.50, 2.05, 1.65, 7.43, repro,
2006-04-11,-1.07, 6.59, 2.62, 2.15, 1.72, 7.68, repro,
2006-04-12,-3.19, 6.86, 1.09, 2.12, 1.68, 7.55, repro,
2006-04-13,-1.64, 6.87, -6.74, 2.07, 1.67, 7.46, repro,
2006-04-14,-4.96, 3.33, 3.39, 2.09, 1.66, 7.43, repro,
2006-04-15,-1.53, 6.05, 15.70, 2.09, 1.68, 7.58, repro,
2006-04-16,-1.83, 6.41, 3.53, 2.28, 1.78, 8.03, repro,
2006-04-17,-2.80, 7.45, 9.68, 2.07, 1.68, 7.42, repro,
2006-04-18,-1.55, 7.29, 9.56, 2.08, 1.67, 7.41, repro,
2006-04-19,-3.61, 5.35, 0.32, 2.11, 1.67, 7.47, repro,
2006-04-20,-1.76, 6.38, 9.23, 2.06, 1.63, 7.32, repro,
2006-04-21,-1.43, 4.54, 1.56, 2.01, 1.61, 7.20, repro,
2006-04-22,-0.94, 4.81, 5.32, 2.01, 1.62, 7.22, repro,
2006-04-23,0.52, 4.21, 3.28, 2.01, 1.61, 7.19, repro,
2006-04-24,-0.20, 4.12, 0.94, 2.06, 1.66, 7.36, repro,
2006-04-25,1.14, 4.72, 1.51, 2.07, 1.67, 7.41, repro,
2006-04-26,-0.45, 4.60, 3.59, 2.01, 1.62, 7.23, repro,
2006-04-27,0.93, 4.42, 3.94, 2.04, 1.65, 7.38, repro,
2006-04-28,-0.54, 6.24, 4.69, 2.05, 1.65, 7.40, repro,
2006-04-29,-0.14, 6.80, 6.14, 2.07, 1.66, 7.35, repro,
2006-04-30,-0.32, 7.06, -0.79, 2.04, 1.65, 7.34, repro,
2006-05-01,-2.70, 7.90, 2.86, 2.05, 1.63, 7.27, repro,
2006-05-02,-3.27, 8.16, 4.25, 2.03, 1.62, 7.22, repro,
2006-05-03,-2.82, 8.10, 0.57, 2.02, 1.62, 7.20, repro,
2006-05-04,-3.01, 7.56, 8.96, 2.03, 1.63, 7.22, repro,
2006-05-05,-1.68, 8.10, 3.96, 2.03, 1.62, 7.21, repro,
2006-05-06,-2.66, 8.41, -0.05, 2.04, 1.63, 7.28, repro,
2006-05-07,-3.57, 7.11, 7.54, 2.03, 1.63, 7.24, repro,
2006-05-08,-1.75, 7.13, 7.84, 2.01, 1.61, 7.15, repro,
2006-05-09,-1.17, 7.54, 10.94, 2.07, 1.67, 7.38, repro,
2006-05-10,-2.36, 8.03, 10.31, 2.03, 1.63, 7.24, repro,
2006-05-11,-2.63, 9.14, 8.83, 2.04, 1.62, 7.24, repro,
2006-05-12,-1.50, 9.04, 11.55, 2.04, 1.63, 7.24, repro,
2006-05-13,-2.67, 10.06, 0.35, 2.02, 1.61, 7.17, repro,
2006-05-14,-1.85, 9.87, -1.98, 2.01, 1.62, 7.18, repro,
2006-05-15,-1.81, 9.88, -7.91, 2.06, 1.67, 7.34, repro,
2006-05-16,-3.77, 9.87, -0.73, 2.10, 1.64, 7.46, repro,
2006-05-17,-4.49, 10.19, 13.01, 2.09, 1.64, 7.46, repro,
2006-05-18,-5.06, 10.86, 8.61, 2.04, 1.62, 7.31, repro,
2006-05-19,-4.15, 8.94, 15.07, 2.07, 1.66, 7.36, repro,
2006-05-20,-1.38, 8.71, 11.81, 2.10, 1.68, 7.47, repro,
2006-05-21,-1.68, 7.74, 6.65, 2.08, 1.65, 7.37, repro,
2006-05-22,-1.63, 6.94, 5.17, 2.16, 1.68, 7.68, repro,
2006-05-23,-1.77, 5.79, 7.40, 2.07, 1.67, 7.38, repro,
2006-05-24,-0.86, 4.92, 7.43, 2.14, 1.76, 7.73, repro,
2006-05-25,-3.84, 7.88, 8.84, 2.30, 1.83, 8.15, repro,
2006-05-26,-2.09, 5.43, 14.83, 2.15, 1.71, 7.55, repro,
2006-05-27,-4.11, 5.45, 12.72, 2.14, 1.70, 7.62, repro,
2006-05-28,-3.25, 6.48, 16.18, 2.09, 1.68, 7.47, repro,
2006-05-29,-4.01, 4.70, 9.91, 2.09, 1.68, 7.44, repro,
2006-05-30,-4.07, 5.88, 6.38, 2.13, 1.73, 7.69, repro,
2006-05-31,-4.50, 6.57, 3.83, 2.13, 1.77, 7.83, repro,
2006-06-01,-3.33, 8.45, -4.50, 2.14, 1.68, 7.54, repro,
2006-06-02,-2.59, 8.41, 4.64, 2.14, 1.71, 7.68, repro,
2006-06-03,-5.22, 8.54, -2.54, 2.13, 1.71, 7.66, repro,
2006-06-04,-1.88, 8.43, 7.46, 2.12, 1.70, 7.59, repro,
2006-06-05,-1.81, 6.10, 8.87, 2.16, 1.72, 7.73, repro,
2006-06-06,-2.00, 5.60, 6.74, 2.34, 1.88, 8.47, repro,
2006-06-07,-2.66, 7.24, 10.92, 2.15, 1.71, 7.68, repro,
2006-06-08,-3.06, 5.59, 3.94, 2.08, 1.67, 7.41, repro,
2006-06-09,-4.01, 4.89, 4.08, 2.13, 1.68, 7.55, repro,
2006-06-10,-1.98, 5.09, 5.64, 2.11, 1.67, 7.48, repro,
2006-06-11,-0.90, 7.21, 0.19, 2.13, 1.68, 7.54, repro,
2006-06-12,-2.26, 5.51, 1.30, 2.14, 1.68, 7.55, repro,
2006-06-13,-1.87, 4.61, 0.93, 2.13, 1.70, 7.61, repro,
2006-06-14,-3.17, 3.28, 8.21, 2.08, 1.67, 7.46, repro,
2006-06-15,-1.96, 4.97, 6.28, 2.07, 1.66, 7.36, repro,
2006-06-16,-2.33, 4.45, 8.85, 2.07, 1.66, 7.35, repro,
2006-06-17,-2.94, 4.06, 6.37, 2.12, 1.72, 7.65, repro,
2006-06-18,-3.56, 3.58, 10.74, 2.29, 1.84, 8.09, repro,
2006-06-19,-1.64, 4.97, 0.50, 2.18, 1.79, 7.81, repro,
2006-06-20,-3.65, 4.62, 2.03, 2.23, 1.80, 7.85, repro,
2006-06-21,-5.63, 4.93, 9.18, 2.15, 1.72, 7.64, repro,
2006-06-22,-3.54, 6.43, 8.67, 2.15, 1.72, 7.58, repro,
2006-06-23,-1.98, 5.44, 1.19, 2.14, 1.72, 7.55, repro,
2006-06-24,-2.17, 4.55, 9.54, 2.16, 1.72, 7.59, repro,
2006-06-25,-2.68, 2.39, -1.57, 3.86, 3.79, 15.27, repro,
2006-06-26,-2.75, 4.34, -4.30, 2.15, 1.73, 7.62, repro,
2006-06-27,-4.79, 4.79, 11.15, 2.21, 1.73, 7.75, repro,
2006-06-28,-1.84, 5.59, 7.51, 2.14, 1.71, 7.54, repro,
2006-06-29,-1.76, 4.76, 3.85, 2.14, 1.68, 7.56, repro,
2006-06-30,-2.21, 6.84, -0.58, 2.11, 1.68, 7.44, repro,
2006-07-01,-4.54, 6.53, 7.01, 2.13, 1.67, 7.46, repro,
2006-07-02,-4.19, 5.21, 7.00, 2.11, 1.66, 7.38, repro,
2006-07-03,-4.76, 4.21, 5.93, 2.11, 1.66, 7.38, repro,
2006-07-04,-3.35, 6.41, 6.38, 2.46, 2.02, 8.68, repro,
2006-07-05,-4.08, 6.48, 6.72, 2.11, 1.67, 7.39, repro,
2006-07-06,-2.94, 7.43, 1.11, 2.09, 1.66, 7.32, repro,
2006-07-07,-3.01, 4.89, -3.79, 2.09, 1.65, 7.29, repro,
2006-07-08,-2.61, 5.77, -2.57, 2.08, 1.64, 7.29, repro,
2006-07-09,-3.91, 7.15, 11.99, 2.09, 1.65, 7.30, repro,
2006-07-10,-1.48, 4.59, 5.06, 2.09, 1.65, 7.29, repro,
2006-07-11,-4.31, 6.61, 8.00, 2.10, 1.67, 7.36, repro,
2006-07-12,-4.29, 8.08, 18.30, 2.23, 1.83, 7.99, repro,
2006-07-13,-5.17, 9.05, -2.35, 2.09, 1.66, 7.35, repro,
2006-07-14,-6.99, 7.09, 8.41, 2.22, 1.75, 7.76, repro,
2006-07-15,-4.90, 8.28, 10.81, 2.29, 1.76, 7.93, repro,
2006-07-16,-5.07, 8.22, 21.95, 2.16, 1.74, 7.60, repro,
2006-07-17,-4.71, 5.91, 12.37, 2.24, 1.71, 7.73, repro,
2006-07-18,-5.80, 4.85, 10.60, 2.09, 1.65, 7.36, repro,
2006-07-19,-5.79, 7.78, 14.42, 2.29, 1.75, 7.96, repro,
2006-07-20,-6.37, 8.52, 17.29, 2.18, 1.75, 7.87, repro,
2006-07-21,-4.93, 5.88, 14.45, 2.18, 1.75, 7.69, repro,
2006-07-22,-4.77, 9.44, 11.46, 2.07, 1.64, 7.32, repro,
2006-07-23,-3.72, 9.99, 11.11, 2.06, 1.63, 7.22, repro,
2006-07-24,-5.54, 8.21, 12.76, 2.05, 1.61, 7.19, repro,
2006-07-25,-5.55, 7.60, 16.58, 2.10, 1.62, 7.40, repro,
2006-07-26,-4.32, 8.08, 15.58, 2.21, 1.73, 7.69, repro,
2006-07-27,-3.28, 4.83, 10.22, 2.14, 1.69, 7.60, repro,
2006-07-28,-8.76, 8.95, 18.99, 2.08, 1.64, 7.36, repro,
2006-07-29,-8.02, 8.90, 21.29, 2.08, 1.64, 7.36, repro,
2006-07-30,-6.90, 8.62, 14.26, 2.06, 1.63, 7.30, repro,
2006-07-31,-5.94, 8.04, 20.24, 2.05, 1.62, 7.22, repro,
2006-08-01,-5.87, 6.63, 15.08, 2.05, 1.62, 7.20, repro,